Location: Degersen
(52.2871°N, 9.5716°E)
Time: 23:14:37
(UTC+00:00)

CZ-4 R/B - Pass Details

Date: 20 January 2026
Orbit: 676 x 743 km, 98.7° (Epoch: 7 February)

Event Time Altitude Azimuth Distance (km) Brightness Sun altitude
Rises 04:42:03 0° 16° (NNE) 3,109 7.3 -23.5°
Reaches altitude 10° 04:44:18 10° 19° (NNE) 2,196 6.5 -23.1°
Maximum altitude 04:49:07 72° 104° (ESE) 760 4.0 -22.4°
Drops below altitude 10° 04:54:00 10° 189° (S) 2,221 6.3 -21.6°
Sets 04:56:17 0° 192° (SSW) 3,147 7.1 -21.3°
